#timestamp,LO_Frequency,Hit,StdDev 
1611990015.8,286047002.3,N
1611990035.7,286047002.7,N
1611990055.5,286047003.7,N
1611990075.3,286047005.5,N
1611990095.2,286047006.6,N
1611990145.0,286047005.5,E
1611990155.9,286047002.1,N
1611990175.7,286047002.8,P
1611990195.5,286047002.2,P
1611990215.4,286047005.6,Y
1611990235.2,286047005.8,P
1611990255.1,286047004.8,N
1611990256.0,286047004.8,P
1611990275.8,286047004.8,Y
1611990295.6,286047000.0,P
1611990315.5,286047002.4,N
1611990365.4,286046993.0,E
1611990375.3,286046993.9,N
1611990395.1,286047000.4,P
1611990415.9,286047000.9,N
1611990435.7,286047001.1,N
1611990455.5,286046996.6,N
1611990475.4,286047001.0,N
1611990495.2,286047004.8,N
1611990515.0,286047006.9,N
1611990515.9,286047006.9,N
1611990535.8,286047005.7,N
1611990555.6,286047004.8,N
1611990575.5,286047005.7,N
1611990595.3,286047005.1,N
1611990615.1,286047006.4,N
1611990635.9,286047006.1,N
1611990655.7,286047005.2,N
1611990675.6,286047004.3,N
1611990695.4,286047002.1,N
1611990715.2,286047004.7,N
1611990735.1,286047005.8,N
1611990736.0,286047005.8,N
1611990755.8,286047000.4,N
1611990775.6,286047000.4,N
1611990795.5,286047003.7,N
1611990815.3,286047007.5,N
1611990835.2,286047004.7,N
1611990855.9,286047006.5,N
1611990875.7,286047009.4,N
1611990895.6,286047012.9,Y
1611990915.4,286047013.5,P
1611990935.3,286047014.3,N
1611990955.1,286047015.6,P
1611990956.0,286047015.6,Y
1611990975.8,286047001.2,P
1611990995.7,286047000.5,N
1611991015.5,286046996.8,N
1611991035.3,286046997.9,N
1611991055.2,286046995.2,N
1611991075.0,286046995.7,N
1611991075.9,286046995.7,N
1611991095.8,286046996.6,N
1611991115.6,286046997.7,N
1611991135.4,286046998.4,N
1611991155.3,286046999.2,N
1611991175.1,286046998.8,N
1611991195.9,286047000.0,N
1611991215.7,286047001.6,N
1611991235.5,286047004.6,N
1611991255.4,286047003.9,N
1611991275.2,286047002.0,N
1611991295.0,286047000.8,N
1611991295.9,286047000.8,N
1611991315.8,286046998.0,N
1611991335.6,286046996.3,N
1611991355.5,286046992.3,N
1611991375.3,286046994.3,N
1611991395.1,286046990.3,N
1611991415.9,286046991.9,N
1611991435.7,286046994.9,N
1611991455.5,286046992.3,N
1611991475.4,286046997.1,N
1611991495.2,286046997.1,N
1611991515.1,286046999.9,N
1611991516.0,286046999.9,N
1611991535.8,286047003.1,N
1611991555.6,286047003.2,N
1611991575.5,286047000.4,N
1611991595.3,286046997.8,N
1611991615.2,286047001.0,N
1611991635.9,286047001.3,N
1611991655.7,286047004.2,N
1611991675.6,286047003.9,N
1611991695.4,286047000.6,N
1611991715.2,286046995.4,N
1611991735.1,286046994.5,N
1611991736.0,286046994.5,N
1611991755.8,286046995.0,N
1611991775.7,286046996.8,N
1611991795.5,286046997.9,N
1611991815.3,286046990.1,N
1611991835.2,286046989.1,N
1611991855.0,286046989.4,N
1611991855.9,286046989.4,N
1611991875.8,286046989.5,N
1611991895.6,286046992.5,N
1611991915.4,286046998.9,N
1611991935.3,286047003.1,N
1611991955.1,286047008.3,N
1611991975.9,286047015.6,Y
1611991995.7,286047011.9,P
1611992015.5,286047008.4,N
1611992035.4,286047006.1,N
1611992055.2,286047010.0,N
1611992075.0,286047013.9,N
1611992075.9,286047013.9,N
1611992095.8,286047008.0,N
1611992115.6,286047008.0,N
1611992135.5,286047005.7,N
1611992155.3,286047005.4,N
1611992175.1,286047009.1,N
1611992195.9,286047010.3,N
1611992215.7,286047009.2,N
1611992235.6,286047006.8,N
1611992255.4,286047008.4,N
1611992275.2,286047013.8,Y
1611992295.1,286046998.1,P
1611992296.0,286046998.1,N
1611992315.8,286047000.9,N
1611992335.6,286046999.6,N
1611992355.5,286046996.5,N
1611992375.3,286046999.4,N
1611992395.2,286047000.5,N
1611992415.9,286047002.2,N
1611992435.7,286047005.4,N
1611992455.6,286047006.0,N
1611992475.4,286047000.5,N
1611992495.3,286046997.2,N
1611992515.1,286046993.5,N
1611992516.0,286046993.5,N
1611992535.8,286046995.1,N
1611992555.7,286046996.2,N
1611992575.5,286046995.1,N
1611992595.3,286046995.9,N
1611992615.2,286046994.1,N
1611992635.0,286046990.5,N
1611992635.9,286046990.5,N
1611992655.8,286046987.1,N
1611992675.6,286046986.9,N
1611992695.4,286046987.6,N
1611992715.3,286046986.9,N
1611992735.1,286046985.5,N
1611992755.9,286046984.6,N
1611992775.7,286046982.1,N
1611992795.5,286046979.2,Y
1611992815.4,286046989.3,P
1611992835.2,286046990.6,P
1611992855.1,286046991.6,P
1611992856.0,286046991.6,Y
1611992875.8,286046998.8,P
1611992895.6,286046996.7,N
1611992915.5,286046995.9,N
1611992935.3,286046994.6,N
1611992955.2,286046992.0,Y
1611992975.9,286046997.0,P
1611992995.7,286046997.1,P
1611993015.6,286046994.0,P
1611993035.4,286046994.7,Y
1611993055.2,286046997.5,P
1611993075.1,286046995.3,P
1611993076.0,286046995.3,P
1611993095.8,286046995.5,Y
1611993115.7,286047002.0,P
1611993135.5,286047002.3,N
1611993155.3,286047002.3,N
1611993175.2,286047001.4,N
1611993195.0,286047002.3,N
1611993195.9,286047002.3,N
1611993215.8,286046998.5,N
1611993235.6,286046996.9,N
1611993255.4,286046997.4,N
1611993275.3,286046995.6,N
1611993295.1,286046993.8,N
1611993315.9,286046992.1,N
1611993335.7,286046996.0,N
1611993355.5,286046996.3,N
1611993375.4,286046993.8,N
1611993395.2,286046996.2,N
1611993415.0,286046993.3,N
1611993416.0,286046993.3,N
1611993435.8,286046996.4,N
1611993455.6,286046995.8,N
1611993475.5,286046997.2,N
1611993495.3,286046999.5,N
1611993515.1,286047000.4,N
1611993535.9,286047001.3,N
1611993555.7,286047000.5,N
1611993575.6,286046998.3,N
1611993595.4,286046999.3,N
